Location: Aardam
(52.1667°N, 4.7667°E)
Time: 11:48:59
(UTC+00:00)

Daily predictions for brighter satellites

Satellite Brightness Start Highest point End
(mag) Time Altitude Azimuth Time Altitude Azimuth Time Altitude Azimuth
Cosmos 2263 Rocket 3.3 16:47:21 10° WSW 16:52:41 40° NW 16:58:01 10° NNE
Cosmos 1898 Rocket 4.4 16:50:03 10° SSE 16:54:33 30° ESE 16:59:02 10° NE
Cosmos 1626 4.1 16:51:27 10° SW 16:54:43 29° WNW 16:58:00 10° N
CZ-4C R/B 2.8 16:51:50 10° NNE 16:55:00 58° ESE 16:58:10 10° S
Cosmos 1680 Rocket 3.5 16:51:06 10° NNW 16:56:23 77° ENE 17:01:35 10° SSE
Meteor 2-10 Rocket 3.8 16:53:48 10° NNW 16:59:14 77° W 17:04:25 10° S
Nadezhda 4 Rocket 4.1 16:55:02 10° SSE 17:01:03 55° E 17:07:02 10° NNE
CZ-4B R/B 2.8 17:00:54 10° NE 17:03:22 19° E 17:05:45 10° SE
NOAA 12 4.3 16:58:35 10° SSE 17:03:49 80° WSW 17:09:07 10° NNW
Landsat 5 3.2 17:00:50 10° NNE 17:04:43 75° ESE 17:08:32 10° S
MOS 1 Rocket 4.3 17:01:41 10° NE 17:04:58 21° E 17:08:16 10° SE
CZ-2D R/B 3.9 17:03:35 10° SE 17:07:04 34° ENE 17:10:33 10° N
Cosmos-2242 4.0 17:04:19 10° N 17:07:54 25° ENE 17:11:28 10° ESE
NOSS 3-1 (C) 4.2 17:03:02 10° NW 17:10:18 82° SW 17:18:52 10° SE
NOAA 11 4.3 17:05:41 10° SSE 17:11:12 88° WSW 17:16:45 10° NNW
AQUARIUS 4.4 17:07:30 10° S 17:12:00 77° WSW 17:16:32 10° NNW
COSMO-SKYMED 1 3.5 17:08:40 10° NNE 17:12:28 29° E 17:16:15 10° SSE
BREEZE-M DEB (TANK) 2.4 17:12:25 10° W 17:14:47 46° S 17:17:03 10° ESE
Aureole 3 2.6 17:12:46 10° N 17:15:57 87° E 17:18:55 10° S
Cosmos 1937 Rocket 4.2 17:12:25 10° SSE 17:17:10 34° ESE 17:21:55 10° NE
Okean 1-7 Rocket 3.7 17:14:31 10° S 17:19:06 89° WNW 17:23:43 10° N
USA 290 2.7 17:17:02 10° NNW 17:20:03 37° ENE 17:23:03 10° SE
Cosmos 1833 Rocket 2.7 17:18:14 10° NNW 17:23:50 62° NE 17:29:24 10° SE
NOSS 2-1 (C) 3.4 17:21:22 10° SSW 17:24:32 44° SE 17:27:19 14° ENE
Cosmos 2221 4.4 17:25:08 10° NNE 17:26:48 12° NE 17:26:48 12° NE
H-2A R/B 2.5 17:24:54 10° SE 17:29:37 39° ENE 17:34:28 10° N
H-2A R/B 2.1 17:25:27 10° NNE 17:29:53 88° E 17:34:12 10° SSW
Cosmos 2344 4.3 17:21:10 10° NW 17:30:03 83° NE 17:42:25 10° SE
NOSS 2-1 (D) 3.2 17:27:15 10° SSW 17:30:27 50° SE 17:33:06 16° ENE
Meteor 1-21 Rocket 4.2 17:25:14 10° S 17:30:45 74° E 17:36:23 10° NNE
Cosmos 1939 Rocket 2.9 17:27:40 10° SSE 17:31:45 89° ENE 17:35:48 10° NNW
USA 229 DEB 4.1 17:24:35 10° NW 17:31:49 81° SW 17:39:29 10° SE
USA 229 4.0 17:24:41 10° NW 17:31:56 82° SW 17:39:36 10° SE
Helios 1A Rocket 3.8 17:28:34 10° ESE 17:32:08 29° ENE 17:35:44 10° N
Cosmos 389 Rocket 4.1 17:29:54 10° NNE 17:32:01 16° ENE 17:32:01 16° ENE
SeaSat 1 3.3 17:29:00 10° NNE 17:33:46 49° NW 17:38:30 10° WSW
CZ-3B R/B 2.1 17:31:25 10° WNW 17:33:46 61° SSW 17:39:46 10° SE
Cosmos 44 3.3 17:29:43 10° SW 17:34:35 80° SE 17:39:31 12° NE
Cosmos 1602 Rocket 3.6 17:30:37 10° S 17:34:53 56° E 17:39:13 10° NNE
Cosmos 2026 Rocket 4.2 17:30:23 10° SSE 17:36:16 49° E 17:42:17 10° NNE
Feng Yun 1-1 Rocket 4.2 17:31:38 10° SSE 17:37:08 82° ENE 17:42:51 10° NNW
SJ 16-02 2.0 17:33:34 10° SW 17:37:54 57° WNW 17:42:16 10° NNE
Cosmos 1689 Rocket 4.0 17:41:34 14° ESE 17:41:34 14° ESE 17:42:21 10° SE
Cosmos 1553 Rocket 4.3 17:34:23 10° N 17:40:35 47° ENE 17:46:39 10° SE
YAOGAN 1 2.9 17:37:00 10° SE 17:41:06 43° ENE 17:45:13 10° N
Cosmos 990 Rocket 3.9 17:36:12 10° SSW 17:41:23 76° ESE 17:46:35 10° NNE
Aureole 3 Rocket 2.4 17:38:30 10° N 17:41:38 59° ENE 17:45:24 10° SSE
Cosmos 1844 Rocket 3.2 17:37:31 10° SW 17:43:07 61° NW 17:48:44 10° NNE
COSMOS 2406 3.3 17:37:23 10° NNW 17:43:13 89° ENE 17:49:00 10° SSE
Cosmos 2082 Rocket 2.4 17:37:59 10° NNW 17:43:37 52° NE 17:49:11 10° SE
Cosmos 1818 4.1 17:39:23 10° WSW 17:44:46 57° NW 17:49:56 11° NE
Cosmos 1844 4.0 17:41:28 10° SW 17:47:09 69° NW 17:52:56 10° NNE
NOSS 3-1 (A) 4.2 17:40:08 10° NW 17:47:27 78° SW 17:56:00 10° SE
Meteor 1-27 4.4 17:42:02 10° N 17:47:29 48° ENE 17:52:51 10° SE
HJ-1C 4.3 17:47:04 18° ESE 17:48:44 27° ENE 17:51:38 10° N
Cosmos 1703 3.2 17:45:00 10° S 17:48:52 88° ESE 17:52:47 10° N
X-37B 2.9 17:46:34 10° WSW 17:48:56 19° SSW 17:51:19 10° SE
Cosmos 1825 Rocket 4.1 17:46:01 10° SSE 17:49:59 35° E 17:54:02 10° NNE
deb Kosmos-1763 4.4 17:47:03 10° NNW 17:50:28 39° ENE 17:52:51 17° ESE
IRS-1C Rocket 4.0 17:45:24 10° SSE 17:50:38 80° ENE 17:55:56 10° NNW
Cosmos 1812 Rocket 3.7 17:46:24 10° NNW 17:50:49 80° W 17:55:09 10° S
NOSS 2-2 (E) 4.5 17:46:08 10° NW 17:50:56 49° NE 17:56:04 16° ESE
ISS -3.8 17:48:46 10° W 17:52:10 84° S 17:53:50 28° E
ATLAS 2AS CENTAUR R/B 3.9 17:48:26 10° WNW 17:55:33 36° N 18:00:55 16° NE
Okean O Rocket 3.4 17:52:36 10° SSW 17:56:40 35° W 18:00:44 10° NNW
Cosmos 2227 Rocket 4.4 17:55:21 10° NNW 17:57:20 12° N 17:59:19 10° NNE
ATLAS 5 CENTAUR R/B 3.4 17:54:00 10° WNW 17:57:44 24° N 18:00:58 14° NE
Iridium 4 Rocket 3.4 17:53:35 10° N 17:59:05 76° E 18:04:03 10° S
CZ-4 R/B 1.2 17:56:44 10° SSE 18:00:43 73° ENE 18:04:40 10° N
ERS-2 2.4 17:58:38 20° NE 18:00:46 42° E 18:04:14 10° S
SKYMED 2 3.5 17:56:24 10° NNE 18:00:47 79° ESE 18:05:07 10° S
Cosmos 2195 Rocket 4.5 17:57:32 10° S 18:03:53 85° E 18:10:16 10° N
CSL-04 Rocket 3.8 17:59:56 10° SE 18:05:12 52° ENE 18:10:34 10° N
S3M 4.1 18:01:11 10° N 18:07:08 50° ENE 18:13:03 10° SSE
CZ-4C R/B 3.7 18:02:28 10° WNW 18:07:50 31° N 18:11:46 19° NE
Okean-O 2.5 18:03:48 10° SSE 18:08:14 79° ENE 18:12:41 10° NNW
USA 234 3.5 18:05:52 22° ENE 18:10:09 59° N 18:16:34 10° WNW
Ariane Rocket 4.1 18:11:25 24° NE 18:11:25 24° NE 18:15:18 10° N
Cosmos 1428 Rocket 4.4 18:05:34 10° S 18:11:53 82° E 18:18:14 10° NNE
Cosmos 1340 3.0 18:08:42 10° SSW 18:12:25 65° WNW 18:16:11 10° N
Cosmos 1346 Rocket 2.8 18:09:05 10° S 18:12:55 54° E 18:15:12 23° NNE
Cosmos 2278 Rocket 2.3 18:07:46 10° S 18:13:18 57° ESE 18:17:11 20° NE
Cosmos 1655 Rocket 4.4 18:07:50 10° SSE 18:13:29 38° E 18:19:10 10° NNE
Cosmos 858 Rocket 4.5 18:10:01 10° SSW 18:15:19 87° ESE 18:20:22 11° NNE
Cosmos 1953 Rocket 3.8 18:12:21 10° SSE 18:16:26 42° E 18:17:58 30° NE
CZ-2C R/B 3.8 18:11:26 10° S 18:16:55 63° W 18:22:40 10° NNW
SAR-Lupe-4 3.6 18:17:50 41° NE 18:18:45 55° ESE 18:22:15 10° S
SWARM A 4.3 18:15:55 10° SSE 18:18:52 52° ESE 18:18:52 52° ESE
USA 281 4.4 18:17:58 21° NE 18:19:22 23° NNE 18:24:14 10° NNW
Cosmos 2297 Rocket 4.4 18:19:21 10° NNW 18:21:01 11° N 18:22:41 10° NNE
Cosmos 405 4.3 18:17:40 10° NNW 18:21:02 42° W 18:24:22 10° SSW
Cosmos 2292 Rocket 4.0 18:16:55 10° SSE 18:20:41 37° ESE 18:20:41 37° ESE
Genesis I 4.2 18:19:04 10° NNW 18:22:29 30° NNE 18:22:29 30° NNE
COSMOS 2455 4.2 18:17:18 10° W 18:22:43 33° NNW 18:27:33 13° NNE
Cosmos 44 Rocket 4.2 18:19:10 10° S 18:23:19 30° ESE 18:23:19 30° ESE
NOSS 2-1 (E) 3.3 18:22:22 10° WSW 18:25:39 60° NW 18:26:47 38° NNE
Cosmos 1842 Rocket 4.4 18:24:13 10° N 18:27:17 33° NE 18:27:17 33° NE
Meteor 2-2 Rocket 4.5 18:22:50 10° N 18:28:40 52° ENE 18:34:20 11° SSE
Cosmos 1869 3.2 18:25:28 10° N 18:29:20 61° ENE 18:30:11 47° SE
ARGOS 3.0 18:24:59 10° SSE 18:30:22 81° ENE 18:35:47 10° NNW
NOSS 2-2 (D) 4.2 18:25:32 10° NW 18:30:28 65° NE 18:33:29 32° ESE
PSLV R/B 3.8 18:28:24 14° NNE 18:32:05 84° ESE 18:36:18 10° SSW
Meteor 2-19 Rocket 4.4 18:26:34 10° S 18:32:44 90° SE 18:38:56 10° N
SAR-Lupe-1 3.9 18:34:05 54° NNE 18:34:49 84° ESE 18:38:25 10° SSW
CZ-4B R/B 3.0 18:32:38 10° N 18:35:41 34° WNW 18:38:39 10° SW
Cosmos 1898 Rocket 4.3 18:31:17 10° SW 18:36:24 51° WNW 18:41:26 10° NNE
Cosmos 468 4.4 18:31:18 10° NNW 18:36:35 86° ENE 18:41:13 14° SSE
Cosmos 372 Rocket 3.9 18:31:45 10° SSW 18:36:57 76° ESE 18:39:58 26° NNE
CZ-2C R/B 2.9 18:33:45 22° NE 18:37:01 45° E 18:42:24 10° S
Cosmos 2263 Rocket 4.5 18:35:01 10° WNW 18:38:15 15° NNW 18:41:29 10° NNE
Cosmos 494 Rocket 3.8 18:35:24 10° NNW 18:40:34 68° ENE 18:42:29 38° SE
MOS 1 Rocket 3.9 18:39:24 10° N 18:43:33 50° WNW 18:47:43 10° SW
Cosmos 1048 Rocket 3.9 18:40:25 10° NNW 18:45:35 83° WSW 18:49:36 17° SSE
Cosmos-2242 4.2 18:41:33 10° NNW 18:45:37 42° W 18:49:42 10° SSW
Cosmos 2150 Rocket 4.1 18:41:15 10° S 18:45:58 49° ESE 18:45:58 49° ESE
COSMO-SKYMED 1 3.9 18:44:41 10° N 18:48:45 39° WNW 18:52:46 10° SW
MOS 1 4.5 18:51:16 48° ENE 18:51:27 48° ENE 18:56:55 10° N
Cosmos 909 Rocket 4.3 18:52:25 10° NW 18:58:43 57° NE 19:00:09 48° E
Cosmos 1937 Rocket 4.5 18:53:53 10° SW 18:59:00 47° WNW 19:03:18 15° NNE
SL-08 RB Rocket 3.8 18:59:18 23° S 19:02:04 74° WSW 19:06:34 10° NNW
Cosmos 2221 3.5 19:00:55 10° N 19:03:42 38° N 19:03:42 38° N
Cosmos 389 Rocket 4.0 19:03:42 10° NNW 19:05:55 33° NW 19:05:55 33° NW
Helios 1A Rocket 4.4 19:03:20 10° SSW 19:07:12 37° W 19:11:04 10° NNW
H-2A R/B 3.4 19:04:19 10° SSW 19:09:03 38° W 19:13:57 10° NNW
Cosmos 1125 Rocket 4.5 19:05:44 10° S 19:08:41 33° S 19:08:41 33° S
Cosmos 1809 Rocket 4.3 19:05:16 10° S 19:11:24 84° E 19:17:36 10° NNE
Cosmos 2298 Rocket 3.9 19:08:10 10° SSW 19:13:30 84° ESE 19:13:35 84° E
Cosmos 2266 Rocket 3.8 19:09:20 10° S 19:15:34 82° E 19:21:43 10° NNE
SJ 16-02 4.2 19:15:47 10° WNW 19:17:30 12° NW 19:19:12 10° NNW
NOSS 2-2 (C) 4.4 19:13:23 10° NW 19:18:35 76° SW 19:20:07 53° SSE
In-Cosmos 22 Rocket 4.3 19:19:32 10° SSW 19:25:19 77° WNW 19:29:35 18° N
Cosmos 2082 Rocket 3.7 19:22:25 10° NW 19:27:33 35° WSW 19:32:37 10° S
ISS -1.1 19:25:35 10° W 19:26:49 20° W 19:26:49 20° W
Cosmos 1269 Rocket 4.5 19:24:57 10° NNW 19:29:02 54° NNW 19:29:02 54° NNW
NOSS 3-4 (A) 4.3 19:24:22 10° NW 19:30:35 42° NNE 19:30:38 42° NNE
NOSS 3-4 (C) 4.3 19:24:29 10° NW 19:30:41 42° NNE 19:30:44 42° NNE
Cosmos 1241 Rocket 4.4 19:26:50 10° SSW 19:33:16 81° SE 19:33:16 81° SE
MetOp-A 4.4 19:37:46 63° SW 19:38:07 65° WSW 19:43:28 10° NNW
ATLAS 5 CENTAUR R/B 3.7 19:39:39 10° NW 19:42:29 24° N 19:42:29 24° N
Cosmos 2227 Rocket 4.4 19:41:02 10° NNW 19:42:53 14° N 19:42:53 14° N
Cosmos 2315 Rocket 4.2 19:38:39 10° NNW 19:44:51 68° W 19:46:33 48° SSW
ATLAS 2AS CENTAUR R/B 3.5 19:41:07 10° NW 19:48:21 42° NNE 19:48:21 42° NNE
Ariane Rocket 4.1 19:51:36 40° NW 19:51:36 40° NW 19:54:55 10° NNW
USA 234 3.2 19:53:13 73° N 19:53:13 73° N 19:59:27 10° WNW
Cosmos 2278 Rocket 3.5 19:52:30 10° WSW 19:57:42 35° NW 19:59:05 31° NNW
CZ-4C R/B 3.4 19:51:35 10° NW 19:56:57 44° N 19:56:57 44° N
USA 281 3.9 20:04:50 45° N 20:04:50 45° N 20:09:24 10° NNW
Cosmos 2297 Rocket 4.4 20:03:40 10° NNW 20:05:07 14° N 20:05:07 14° N
CZ-2C R/B 4.0 20:15:10 28° NNW 20:17:14 37° WNW 20:22:20 10° SW
